GW3416 Weather Reports


Display with metric or nautical units.
time (UTC)temp
F
wind
direction
speed
MPH
gust
MPH
rain 1hr
in
rain 24hr
in
rain mn
in
humidity
%
barometer
mb
20260503192521 54 162 0.0 0.0 0.00 0.00 0.00 93 1034.1
20260503191521 54 181 0.0 1.0 0.00 0.00 0.00 93 1033.9
20260503190518 54 184 0.0 0.0 0.00 0.00 0.00 93 1033.8
20260503185539 54 0.0 0.0 0.00 0.00 0.00 93 1033.8
20260503184519 54 172 0.0 1.0 0.00 0.00 0.00 93 1033.7
20260503183540 54 0.0 0.0 0.00 0.00 0.00 93 1033.6
20260503182520 54 0.0 0.0 0.00 0.00 0.00 93 1033.5
20260503181519 53 179 0.0 1.0 0.00 0.00 0.00 93 1033.4
20260503180518 53 153 0.0 1.0 0.00 0.00 0.00 93 1033.4
20260503175519 53 183 0.0 1.0 0.00 0.00 0.00 93 1033.4
20260503174519 53 0.0 0.0 0.00 0.00 0.00 93 1033.4
20260503173519 53 0.0 0.0 0.00 0.00 0.00 93 1033.2
20260503172517 53 167 0.0 1.0 0.00 0.00 0.00 93 1033.1
20260503171516 53 183 0.0 1.0 0.00 0.00 0.00 93 1033.2
20260503170519 53 333 0.0 1.0 0.00 0.00 0.00 93 1033.2
20260503150519 54 221 0.0 1.0 0.00 0.00 0.00 92 1033.5
20260503130520 54 0.0 0.0 0.00 0.00 0.00 91 1034.2
20260503110521 55 181 0.0 1.0 0.00 0.00 0.00 89 1034.2
20260503081519 56 177 0.0 1.0 0.00 0.00 0.00 86 1033.4
20260503080520 56 159 0.0 1.0 0.00 0.00 0.00 86 1033.4
20260503072521 56 163 0.0 0.0 0.00 0.00 0.00 85 1033.0
20260503071522 56 171 0.0 2.0 0.00 0.00 0.00 84 1032.8
20260503070518 56 181 0.0 1.0 0.00 0.00 0.00 83 1032.7
20260503054518 61 0.0 0.0 0.00 0.00 0.00 77 1032.4
20260503053519 62 0.0 0.0 0.00 0.00 0.00 76 1032.3
20260503052518 62 268 0.0 1.0 0.00 0.00 0.00 75 1032.3
20260503051518 63 0.0 0.0 0.00 0.00 0.00 71 1032.3
20260503050519 65 329 0.0 1.0 0.00 0.00 0.00 69 1032.2
20260503045519 67 348 0.0 1.0 0.00 0.00 0.00 65 1032.3
20260503044520 69 4 1.0 5.0 0.00 0.00 0.00 63 1032.3
20260503043519 70 167 0.0 1.0 0.00 0.00 0.00 59 1032.3
20260503042520 70 69 0.0 2.0 0.00 0.00 0.00 59 1032.3
20260503041519 69 153 0.0 2.0 0.00 0.00 0.00 59 1032.3
20260503040520 69 137 1.0 4.0 0.00 0.00 0.00 61 1032.3
20260503035519 68 121 1.0 3.0 0.00 0.00 0.00 61 1032.4
20260503034540 67 10 1.0 4.0 0.00 0.00 0.00 63 1032.4
20260503033538 67 359 2.0 5.0 0.00 0.00 0.00 63 1032.3
20260503032517 67 163 0.0 1.0 0.00 0.00 0.00 64 1032.3
20260503031521 68 21 1.0 4.0 0.00 0.00 0.00 63 1032.3
20260503030520 68 156 0.0 2.0 0.00 0.00 0.00 64 1032.3
20260503025518 67 5 2.0 5.0 0.00 0.00 0.00 63 1032.3
20260503024518 68 130 1.0 3.0 0.00 0.00 0.00 64 1032.3
20260503023538 68 128 0.0 3.0 0.00 0.00 0.00 64 1032.4
20260503022523 68 136 1.0 4.0 0.00 0.00 0.00 62 1032.4
20260503021521 68 1 1.0 3.0 0.00 0.00 0.00 61 1032.4
20260503020518 68 15 1.0 3.0 0.00 0.00 0.00 61 1032.5
20260503015518 69 114 1.0 5.0 0.00 0.00 0.00 61 1032.5
20260503014600 69 322 1.0 3.0 0.00 0.00 0.00 59 1032.6
20260503013518 69 118 0.0 2.0 0.00 0.00 0.00 62 1032.7
20260503012519 69 27 1.0 4.0 0.00 0.00 0.00 60 1032.7
20260503011519 67 139 1.0 5.0 0.00 0.00 0.00 64 1032.9
20260503010519 67 339 2.0 7.0 0.00 0.00 0.00 64 1033.0
20260503005519 68 150 1.0 4.0 0.00 0.00 0.00 64 1033.2
20260503004540 68 111 1.0 4.0 0.00 0.00 0.00 61 1033.2
20260503003519 66 171 1.0 3.0 0.00 0.00 0.00 63 1033.3
20260503002519 66 100 1.0 2.0 0.00 0.00 0.00 65 1033.5
20260503001519 67 79 1.0 3.0 0.00 0.00 0.00 63 1033.6
20260503000520 67 170 1.0 5.0 0.00 0.00 0.00 62 1033.7
20260502235520 67 166 1.0 3.0 0.00 0.00 0.00 63 1033.9
20260502234519 66 161 1.0 4.0 0.00 0.00 0.00 65 1034.0
20260502233518 66 133 1.0 3.0 0.00 0.00 0.00 65 1034.2
20260502232520 66 145 1.0 5.0 0.00 0.00 0.00 65 1034.3
20260502231541 66 128 1.0 4.0 0.00 0.00 0.00 63 1034.3
20260502230520 66 129 1.0 4.0 0.00 0.00 0.00 64 1034.4
20260502225520 66 61 1.0 3.0 0.00 0.00 0.00 63 1034.5
20260502224518 66 143 0.0 2.0 0.00 0.00 0.00 63 1034.5
20260502223517 66 136 0.0 2.0 0.00 0.00 0.00 64 1034.6
20260502222522 65 102 0.0 2.0 0.00 0.00 0.00 65 1034.6
20260502221520 64 135 1.0 3.0 0.00 0.00 0.00 70 1034.5
20260502220518 63 343 1.0 4.0 0.00 0.00 0.00 70 1034.6
20260502215518 62 159 0.0 3.0 0.00 0.00 0.00 76 1034.7
20260502214518 60 118 1.0 2.0 0.00 0.00 0.00 83 1034.6
20260502213518 59 100 0.0 2.0 0.00 0.00 0.00 93 1034.6
20260502212518 57 113 0.0 3.0 0.00 0.00 0.00 96 1034.7
20260502211518 56 92 0.0 2.0 0.00 0.00 0.00 97 1034.8
20260502210519 55 168 0.0 2.0 0.00 0.00 0.00 97 1034.8
20260502205519 54 0.0 0.0 0.00 0.00 0.00 97 1034.8
20260502204519 54 197 0.0 1.0 0.00 0.00 0.00 97 1034.8
20260502203520 53 0.0 0.0 0.00 0.00 0.00 97 1034.7
20260502202539 53 177 0.0 0.0 0.00 0.00 0.00 97 1034.7
20260502201519 52 0.0 0.0 0.00 0.00 0.00 97 1034.6
20260502200539 52 0.0 0.0 0.00 0.00 0.00 97 1034.5
20260502195520 51 0.0 0.0 0.00 0.00 0.00 97 1034.3
20260502194520 51 0.0 0.0 0.00 0.00 0.00 97 1034.2
20260502193519 50 0.0 0.0 0.00 0.00 0.00 97 1034.0